Total_Precipitation_Accumulation
2.32 3.04 3.69 4.23 4.90 5.65 6.22 6.13 5.52 5.07 4.62 4.20 3.72 3.70 3.56 3.35 3.15 2.92 2.69 2.66 2.55 2.39 2.44 2.22 2.27 1.99 2.06 2.19 2.25 2.52 2.68 2.62 2.60 2.88 2.96 2.50 2.05 2.05 2.00 1.99 2.28 2.31 2.34
2.30 3.05 3.66 3.86 3.90 4.16 4.40 3.90 3.72 3.74 3.46 3.30 3.31 3.24 3.11 2.84 2.70 2.70 2.85 2.51 2.47 2.38 2.23 2.40 2.16 2.06 2.27 2.30 2.35 2.58 2.67 2.59 2.64 2.83 3.19 2.93 2.86 2.46 1.81 2.04 2.19 2.24 2.49
2.38 2.90 3.08 3.10 3.00 2.96 2.93 2.71 2.66 2.99 3.02 3.11 3.17 3.18 3.16 2.99 2.80 2.61 2.74 2.41 2.23 2.26 2.36 2.30 2.30 2.34 2.03 2.27 2.44 2.46 2.62 2.68 2.59 2.57 2.98 3.00 2.98 2.59 2.01 1.89 1.99 2.20 2.50
2.38 2.37 1.96 1.80 1.95 2.05 2.16 2.42 2.51 2.67 2.64 2.81 2.78 2.70 2.48 2.36 2.29 2.26 2.42 2.51 2.29 2.19 2.19 2.28 2.54 2.58 2.24 2.42 2.01 2.15 2.47 2.65 2.54 2.59 2.44 2.39 2.56 2.74 2.61 2.22 2.01 2.11 2.24
1.44 1.31 1.18 1.21 1.43 1.72 1.98 2.32 2.43 2.48 2.41 2.41 2.55 2.73 2.64 2.65 2.52 2.43 2.67 2.73 2.77 2.51 2.16 2.13 2.38 2.55 2.47 2.50 2.33 2.55 2.37 2.28 2.26 2.36 2.42 2.44 2.34 2.18 2.40 2.46 2.30 2.16 1.89
0.83 0.88 0.99 1.20 1.45 1.62 1.75 1.99 2.13 2.32 2.34 2.40 2.52 2.57 2.61 2.77 2.73 2.64 2.54 2.46 2.56 2.50 2.28 2.25 2.52 2.52 2.47 2.55 2.46 2.46 2.30 2.26 2.24 2.18 2.14 2.45 2.45 2.30 2.40 2.20 2.15 2.09 1.68
0.71 0.88 1.01 1.21 1.32 1.41 1.46 1.64 1.71 1.89 2.06 2.17 2.26 2.34 2.48 2.60 2.55 2.62 2.57 2.48 2.29 2.16 2.26 2.39 2.64 2.53 2.46 2.40 2.48 2.46 2.42 2.44 2.45 2.32 2.15 2.19 2.27 2.33 2.32 2.29 1.98 1.83 1.62
0.64 0.72 0.86 0.94 1.03 1.22 1.46 1.65 1.61 1.60 1.63 1.68 1.84 2.02 2.08 2.19 2.24 2.53 2.46 2.41 2.30 2.16 2.25 2.36 2.28 2.24 2.28 2.15 2.43 2.30 2.27 2.39 2.41 2.28 2.58 2.46 2.15 2.29 2.30 2.41 2.58 2.33 2.06
0.68 0.69 0.70 0.86 0.94 0.92 1.06 1.28 1.40 1.46 1.47 1.45 1.55 1.62 1.65 1.80 2.03 2.10 1.97 1.85 1.96 2.08 2.18 2.18 2.22 2.24 2.24 2.29 2.50 2.39 2.38 2.55 2.38 2.37 2.74 2.57 2.24 2.23 2.26 2.41 2.69 2.96 2.62
0.59 0.72 0.76 0.80 0.83 0.82 0.99 1.15 1.27 1.37 1.39 1.35 1.36 1.29 1.44 1.56 1.76 1.84 1.84 1.76 1.72 1.92 2.08 2.15 2.24 2.28 2.21 2.26 2.43 2.29 2.43 2.53 2.46 2.47 2.56 2.51 2.30 2.32 2.36 2.50 2.69 2.95 2.91
0.52 0.65 0.69 0.76 0.74 0.73 0.85 1.03 1.23 1.30 1.20 1.23 1.26 1.34 1.42 1.60 1.67 1.65 1.71 1.73 1.75 1.90 2.03 2.12 2.20 2.20 2.22 2.35 2.44 2.29 2.43 2.45 2.55 2.50 2.46 2.43 2.62 2.64 2.44 2.56 2.64 2.85 3.06
0.57 0.63 0.68 0.73 0.69 0.69 0.77 0.88 1.06 1.20 1.23 1.23 1.30 1.40 1.47 1.56 1.63 1.56 1.67 1.85 1.90 1.97 2.07 2.19 2.29 2.20 2.27 2.40 2.35 2.32 2.40 2.47 2.45 2.56 2.75 2.68 2.79 2.75 2.66 2.76 2.74 2.85 3.11
0.60 0.64 0.76 0.71 0.65 0.67 0.73 0.86 1.12 1.33 1.50 1.54 1.50 1.48 1.45 1.53 1.66 1.73 1.78 1.88 2.01 2.10 2.10 2.09 2.18 2.32 2.48 2.50 2.34 2.31 2.31 2.25 2.19 2.34 2.60 2.87 3.28 3.10 2.89 2.74 2.66 2.73 2.82
0.58 0.70 0.79 0.84 0.89 0.90 0.92 1.05 1.23 1.30 1.42 1.42 1.39 1.47 1.53 1.66 1.81 1.88 1.95 2.02 2.04 2.10 2.20 2.25 2.27 2.34 2.39 2.35 2.32 2.34 2.35 2.31 2.16 2.16 2.25 2.43 2.74 2.90 3.02 2.76 2.61 2.69 2.82
0.71 0.76 0.85 0.92 1.00 1.08 1.07 1.07 1.17 1.20 1.32 1.63 1.75 1.89 1.92 1.95 2.07 2.16 2.16 2.21 2.22 2.19 2.39 2.43 2.40 2.40 2.35 2.17 2.32 2.44 2.31 2.36 2.27 2.22 2.16 2.03 2.16 2.35 2.52 2.40 2.68 2.85 2.82
0.81 0.90 0.95 1.00 1.06 1.14 1.25 1.29 1.30 1.34 1.54 1.97 2.27 2.38 2.43 2.46 2.51 2.58 2.56 2.56 2.51 2.65 2.68 2.53 2.48 2.43 2.20 2.33 2.36 2.36 2.35 2.42 2.38 2.32 2.29 2.14 2.00 1.99 2.10 2.14 2.34 2.58 2.63
0.77 0.86 1.02 1.15 1.18 1.24 1.33 1.44 1.51 1.57 1.72 2.01 2.22 2.33 2.44 2.53 2.70 2.74 2.75 2.73 2.74 2.76 2.76 2.79 2.76 2.65 2.69 2.67 2.33 2.25 2.25 2.33 2.33 2.47 2.56 2.17 1.83 2.02 1.97 2.04 2.04 1.98 2.12
0.86 0.98 1.03 1.19 1.32 1.45 1.61 1.83 2.00 2.11 2.13 2.25 2.42 2.53 2.52 2.56 2.63 2.62 2.54 2.57 2.70 2.72 2.68 2.61 2.54 2.50 2.47 2.50 2.25 2.18 2.06 2.12 2.15 2.17 2.20 2.17 2.00 1.91 1.94 1.93 1.81 1.69 1.72
1.06 1.26 1.40 1.43 1.54 1.67 1.82 2.00 2.26 2.43 2.49 2.45 2.58 2.70 2.78 2.83 2.72 2.60 2.62 2.66 2.72 2.60 2.52 2.46 2.45 2.40 2.39 2.42 2.22 2.16 1.98 1.95 1.92 1.90 1.91 1.95 1.85 1.89 1.85 1.75 1.70 1.65 1.56
1.13 1.25 1.43 1.56 1.62 1.80 1.89 1.98 2.14 2.27 2.38 2.43 2.53 2.68 2.76 2.91 3.00 2.92 2.92 2.87 2.79 2.68 2.62 2.54 2.56 2.54 2.51 2.62 2.35 2.19 2.02 2.02 2.05 2.14 2.11 2.07 1.91 1.89 1.79 1.63 1.61 1.49 1.38
1.09 1.14 1.23 1.41 1.51 1.60 1.72 1.89 1.97 1.98 2.08 2.14 2.16 2.36 2.63 2.82 2.95 3.03 3.01 3.02 2.92 2.81 2.63 2.46 2.41 2.41 2.46 2.58 2.39 2.22 2.02 2.03 2.16 2.26 2.31 2.24 2.14 1.84 1.69 1.55 1.46 1.44 1.54
1.12 1.15 1.24 1.34 1.41 1.55 1.80 1.99 2.03 2.02 2.05 2.13 2.25 2.38 2.60 2.70 2.73 2.83 2.88 3.00 2.97 2.89 2.80 2.57 2.35 2.26 2.16 2.10 2.12 1.97 1.87 1.92 2.04 2.15 2.27 2.29 2.19 1.94 1.79 1.63 1.51 1.54 1.50
1.24 1.21 1.24 1.37 1.56 1.76 1.99 2.21 2.24 2.29 2.33 2.37 2.46 2.52 2.58 2.67 2.74 2.79 2.79 2.79 2.76 2.64 2.55 2.42 2.32 2.25 2.18 2.08 1.92 1.71 1.64 1.67 1.71 1.85 2.20 2.31 2.18 1.97 1.71 1.62 1.60 1.51 1.38
1.30 1.27 1.27 1.36 1.56 1.68 1.79 2.02 2.18 2.25 2.41 2.43 2.37 2.34 2.33 2.38 2.45 2.56 2.60 2.55 2.47 2.41 2.33 2.27 2.21 2.10 2.04 1.91 1.80 1.71 1.58 1.54 1.54 1.57 1.81 1.91 1.88 1.71 1.59 1.50 1.40 1.30 1.29
1.39 1.39 1.43 1.50 1.54 1.57 1.63 1.76 1.92 2.07 2.27 2.38 2.38 2.41 2.41 2.42 2.45 2.53 2.62 2.49 2.36 2.35 2.23 2.10 2.12 2.06 1.90 1.86 1.82 1.70 1.59 1.53 1.58 1.57 1.61 1.71 1.79 1.77 1.70 1.68 1.59 1.48 1.39
1.50 1.55 1.60 1.63 1.60 1.58 1.68 1.80 1.94 2.14 2.38 2.39 2.30 2.32 2.40 2.48 2.53 2.57 2.65 2.72 2.47 2.40 2.28 2.16 2.08 1.98 1.83 1.71 1.56 1.50 1.46 1.38 1.37 1.29 1.34 1.54 1.72 1.84 1.84 1.88 1.85 1.76 1.67